CanjetBLOCKVirtuelBLOCKQcBLOCKBLOCKBLOCKBLOCKBLOCKBLOCKBLOCKBLOCKBLOCKBLOCKBLOCKvolsBLOCKavecBLOCKFS-kACARS2021-03-03BLOCK02colon38am

volsBLOCKBLOCKBLOCKBLOCKBLOCKpilotesBLOCKBLOCKBLOCKBLOCKBLOCKBLOCKBLOCKBLOCKtypeBLOCKBLOCKdepBLOCKBLOCKarrBLOCKBLOCKBLOCKBLOCKBLOCKaltBLOCKBLOCKBLOCKBLOCKBLOCKgsBLOCKBLOCKBLOCKBLOCKstatut

cja1043LouisBLOCKMB77LKORD-CYUL0ft0ktsarrived
CJA7160LucBLOCKBB77LVHHH-CYYZ0ft0ktsarrived
cja9999Jean-PierreBLOCKAA333CYQB-CYYZ0ft0ktsarrived
CJA7287RochBLOCKJA333CYUL-PANC35472ft418kts04colon58am









BLOCKAppuyerBLOCKsurBLOCKF5BLOCKpourBLOCKactualiserBLOCKBLOCKBLOCKMiseBLOCKaBLOCKjourcolonBLOCK02colon38colon32amCanjetBLOCKvirtuelBLOCKQC

Bienvenue chez Canjetvirtuel-Q

Publié par Michel Ayotte le 2013-06-14

 

Canjetvirtuel-Québec est une compagnie aérienne virtuelle qui a été fondée par 2 passionnés de la simulation de vol.

Elle est opérée avec les Boeing 737. Exceptionnelement et pour votre plaisir tous les autres versions de Boeing et Airbus sont autorisées.

Ces appareils pouvant faire des vols cargos ou des vols passagers, que ce soit au Canada, Europe, États-Unis, Mexique, Caraïbes et autres destinations mondiales.

Vous trouverez votre place comme pilote chez nous!



Avis

Aux fins de la simulation de vol seulement. CanjetVirtuel Québec n'est en aucun cas affilié avec n'importe quelle compagnie aérienne du monde réel. CanjetVirtuel Québec est un site à but non lucratif gérée par des amateurs de simulation de vol. Toutes les images sont la propriété exclusive de leurs propriétaires respectifs.
| propulsé par phpVMS, © 2013-2020.

Notice

For flight simulation purposes only. CanjetVirtuel Quebec is in no way affiliated with any real world airline. CanjetVirtuel Quebec is a non-profit site run by flight simulation enthusiasts. All images are the sole property of their respective owners.
| powered by phpVMS, © 2013-2020.

Affiliations

Vatsim

Les statistiques du site

Nombre de pilotes: 14
Total des vols effectués: 7774
Trajets disponibles: 736
Passagers transportés: 1996025
Total des heures de vol: 26609
Distance totale (NM): 10377592
Pilotes en ligne: 2

Nouvelles

Bienvenue chez Canjetvirtuel-Q
06/14/2013

METAR

CYHZ 030700Z 28016G23KT 15SM DRSN SCT035 M09/M13 A2935 RMK SC3 SLP951

CYQB 030700Z 20005KT 180V310 15SM FEW110 BKN200 M14/M19 A2981 RMK AC1CI6 SLP102

CYUL 030700Z 20004KT 15SM -SN FEW020 BKN035 OVC060 M08/M09 A2985 RMK SC2SC5SC1 SLP113

CYYZ 030700Z 25011KT 15SM BKN140 00/M08 A2985 RMK AC7 SLP119